Kazan, Russia

2:40 PM MSK on December 16, 2019 (GMT +0300)
Kazan

Weather History for UWKD - October, 2019

Change the Weather History Date:

Thursday, October 17, 2019

  Actual Average (WUND) Record (WUND)
Temperature  
Mean Temperature 44 °F -  
Max Temperature 55 °F - - (-1)
Min Temperature 33 °F - - (-1)
Degree Days  
Heating Degree Days 21    
Moisture  
Dew Point 38 °F    
Average Humidity 76    
Maximum Humidity 100    
Minimum Humidity 49    
Precipitation  
Precipitation 0.00 in - - ()
Sea Level Pressure  
Sea Level Pressure 30.17 in    
Wind  
Wind Speed 8 mph ()    
Max Wind Speed 18 mph    
Max Gust Speed 29 mph    
Visibility 6.0 miles    
Events Rain    
Averages and records for this station are not official NWS values.
T = Trace of Precipitation, MM = Missing Value Source: Averaged Metar Reports

Daily Weather History Graph

Daily Weather History Graph

Search for Another Location

Airport or City:

Astronomy

Oct. 17, 2019 Rise Set
Actual Time 6:16 AM MSK 4:39 PM MSK
Civil Twilight 5:39 AM MSK 5:16 PM MSK
Nautical Twilight 4:56 AM MSK 5:59 PM MSK
Astronomical Twilight 4:13 AM MSK 6:41 PM MSK
Moon 6:24 PM MSK (10/17) 9:53 AM MSK (10/17)
Length of Visible Light 11h 37m
Length of Day
10h 22m
Waning Gibbous, 89% of the Moon is Illuminated
Oct 17
Waning Gibbous
Oct 21
Last Quarter
Oct 28
New
Nov 4
First Quarter
Nov 12
Full

Hourly Weather History & Observations

Time (MSK) Temp. Windchill Dew Point Humidity Pressure Visibility Wind Dir Wind Speed Gust Speed Precip Events Conditions
12:00 AM 36 °F - 31 °F 75% 30.41 in 6 mi SSE 2.2 mph - -   Overcast
12:00 AM 33.8 °F 29.7 °F 32.0 °F 93% 30.39 in 6.2 mi South 4.5 mph - N/A   Scattered Clouds
12:30 AM 35.6 °F 30.0 °F 32.0 °F 87% 30.39 in 6.2 mi South 6.7 mph - N/A   Scattered Clouds
1:00 AM 35.6 °F 30.0 °F 32.0 °F 87% 30.36 in - SSW 6.7 mph - N/A   Clear
1:30 AM 35.6 °F 31.8 °F 32.0 °F 87% 30.36 in - SSW 4.5 mph - N/A   Clear
2:00 AM 35.6 °F 31.8 °F 32.0 °F 87% 30.36 in - South 4.5 mph - N/A   Clear
2:30 AM 37.4 °F 32.2 °F 32.0 °F 81% 30.36 in 6.2 mi South 6.7 mph - N/A   Scattered Clouds
3:00 AM 36 °F - 32 °F 79% 30.40 in 6 mi Calm Calm - -   Overcast
3:00 AM 37.4 °F 32.2 °F 33.8 °F 87% 30.36 in 6.2 mi South 6.7 mph - N/A   Mostly Cloudy
3:30 AM 37.4 °F 32.2 °F 33.8 °F 87% 30.36 in 5.0 mi South 6.7 mph - N/A Rain Light Rain Showers
4:00 AM 37.4 °F 32.2 °F 33.8 °F 87% 30.36 in 5.6 mi SSW 6.7 mph - N/A Rain Light Rain Showers
4:30 AM 35.6 °F 27.7 °F 33.8 °F 93% 30.36 in 5.0 mi SW 11.2 mph - N/A Rain Light Rain Showers
5:00 AM 35.6 °F 28.7 °F 33.8 °F 93% 30.33 in 5.0 mi South 8.9 mph - N/A Rain Light Rain Showers
5:30 AM 35.6 °F 28.7 °F 33.8 °F 93% 30.30 in 6.2 mi SSE 8.9 mph - N/A Rain Light Rain Showers
6:00 AM 35 °F - 35 °F 97% 30.34 in 6 mi SE 2.2 mph - -   Overcast
6:00 AM 35.6 °F 28.7 °F 33.8 °F 93% 30.30 in 6.2 mi SSE 8.9 mph - N/A   Overcast
6:30 AM 37.4 °F 29.9 °F 35.6 °F 93% 30.30 in 6.2 mi South 11.2 mph - N/A   Overcast
7:00 AM 37.4 °F 29.9 °F 37.4 °F 100% 30.27 in 6.2 mi South 11.2 mph - N/A   Overcast
7:30 AM 39.2 °F 31.3 °F 37.4 °F 93% 30.27 in 6.2 mi South 13.4 mph - N/A   Overcast
8:00 AM 39.2 °F 31.3 °F 37.4 °F 93% 30.24 in 6.2 mi South 13.4 mph - N/A   Scattered Clouds
8:30 AM 39.2 °F 32.2 °F 37.4 °F 93% 30.24 in - South 11.2 mph 22.4 mph N/A   Clear
9:00 AM 41 °F - 39 °F 88% 30.25 in 6 mi South 4.5 mph - -   Partly Cloudy
9:30 AM 42.8 °F 35.9 °F 39.2 °F 87% 30.21 in 6.2 mi South 13.4 mph - N/A   Partly Cloudy
10:00 AM 42.8 °F 35.2 °F 37.4 °F 81% 30.18 in - South 15.7 mph - N/A   Clear
10:30 AM 44.6 °F 38.2 °F 35.6 °F 71% 30.18 in - SSW 13.4 mph - N/A   Clear
11:00 AM 46.4 °F 40.5 °F 35.6 °F 66% 30.15 in - SSW 13.4 mph - N/A   Clear
11:30 AM 48.2 °F - 37.4 °F 66% 30.12 in - SSW 13.4 mph 24.6 mph N/A   Clear
12:00 PM 49 °F - 37 °F 53% 30.15 in 6 mi SSW 4.5 mph - -   Partly Cloudy
12:00 PM 48.2 °F - 37.4 °F 66% 30.12 in - SSW 15.7 mph 26.8 mph N/A   Clear
12:30 PM 50.0 °F - 37.4 °F 62% 30.09 in - SSW 15.7 mph 26.8 mph N/A   Clear
1:00 PM 50.0 °F - 37.4 °F 62% 30.09 in - SSW 17.9 mph 29.1 mph N/A   Clear
1:30 PM 50.0 °F - 37.4 °F 62% 30.06 in 6.2 mi SSW 15.7 mph 26.8 mph N/A   Partly Cloudy
2:00 PM 51.8 °F - 39.2 °F 62% 30.06 in 6.2 mi SSW 11.2 mph 22.4 mph N/A   Partly Cloudy
2:30 PM 51.8 °F - 39.2 °F 62% 30.06 in 6.2 mi SSW 8.9 mph 20.1 mph N/A   Partly Cloudy
3:00 PM 53 °F - 40 °F 49% 30.06 in 6 mi WSW 11.2 mph - -   Overcast
3:00 PM 53.6 °F - 39.2 °F 58% 30.04 in 6.2 mi SSW 11.2 mph 22.4 mph N/A   Partly Cloudy
3:30 PM 51.8 °F - 41.0 °F 67% 30.04 in - South 11.2 mph - N/A   Clear
4:00 PM 51.8 °F - 41.0 °F 67% 30.04 in 6.2 mi South 11.2 mph - N/A   Scattered Clouds
4:30 PM 51.8 °F - 41.0 °F 67% 30.04 in 6.2 mi South 6.7 mph - N/A   Scattered Clouds
5:00 PM 50.0 °F - 41.0 °F 71% 30.04 in 6.2 mi South 8.9 mph - N/A   Mostly Cloudy
5:30 PM 51.8 °F - 41.0 °F 67% 30.04 in 6.2 mi South 11.2 mph - N/A   Mostly Cloudy
6:00 PM 55 °F - 43 °F 54% 30.03 in 6 mi WSW 11.2 mph - -  
6:00 PM 51.8 °F - 42.8 °F 71% 30.04 in 6.2 mi SSE 11.2 mph - N/A   Mostly Cloudy
6:30 PM 51.8 °F - 42.8 °F 71% 30.01 in 6.2 mi SSW 11.2 mph - N/A   Partly Cloudy
7:00 PM 53.6 °F - 42.8 °F 67% 30.01 in - SSW 11.2 mph - N/A   Clear
7:30 PM 51.8 °F - 42.8 °F 71% 30.01 in - SSW 11.2 mph - N/A   Clear
8:00 PM 51.8 °F - 42.8 °F 71% 30.01 in - SSW 13.4 mph - N/A   Clear
8:30 PM 51.8 °F - 42.8 °F 71% 30.01 in - SSW 13.4 mph - N/A   Clear
9:00 PM 53 °F - 45 °F 66% 30.02 in 6 mi WSW 8.9 mph - -   Mostly Cloudy
9:00 PM 51.8 °F - 42.8 °F 71% 30.01 in - SW 11.2 mph 22.4 mph N/A   Clear
9:30 PM 51.8 °F - 42.8 °F 71% 30.01 in - WSW 13.4 mph 24.6 mph N/A   Clear
10:00 PM 50.0 °F - 42.8 °F 76% 30.01 in - WSW 15.7 mph - N/A   Clear
10:30 PM 50.0 °F - 42.8 °F 76% 30.01 in - WSW 11.2 mph 22.4 mph N/A   Clear
11:00 PM 50.0 °F - 42.8 °F 76% 30.01 in - WSW 15.7 mph - N/A   Clear
11:30 PM 50.0 °F - 42.8 °F 76% 29.98 in 6.2 mi WSW 11.2 mph 22.4 mph N/A   Partly Cloudy